Regional Weather Roundup
Issued by NWS Cleveland, OH

Home | Current Version | Previous Version | Text Only | Print | Product List | Glossary Off
Versions: 1 2 3 4 5 6 7 8 9 10 11 12 13 14 15 16 17 18 19 20 21 22 23 24 25 26 27 28 29 30 31 32 33 34 35 36 37 38 39 40 41 42 43 44 45 46 47 48 49 50

000
ASUS41 KCLE 280100
RWRCLE
OHIO REGIONAL WEATHER ROUNDUP
NATIONAL WEATHER SERVICE WILMINGTON, OH
800 PM EST SAT DEC 27 2014

NOTE: "FAIR" INDICATES FEW OR NO CLOUDS BELOW 12,000 FEET WITH NO
SIGNIFICANT WEATHER AND/OR OBSTRUCTIONS TO VISIBILITY.

OHZ001>008-015>018-024>027-034-035-043-044-280200-
   NORTHWEST OHIO

CITY           SKY/WX    TMP DP  RH WIND       PRES   REMARKS
DEFIANCE       LGT RAIN  45  41  86 W9G21     30.03R
FINDLAY        CLOUDY    48  45  89 SW10      30.01F FOG
TOLEDO EXPRESS LGT RAIN  47  44  90 SW12      29.99S
TOLEDO METCALF CLOUDY    48  44  86 SW14      30.00R
LIMA           CLOUDY    48  45  89 SW12      30.03S FOG
$$

OHZ009>014-019>023-028>033-038-089-280200-
   NORTHEAST OHIO

CITY           SKY/WX    TMP DP  RH WIND       PRES   REMARKS
CLE-HOPKINS    CLOUDY    50  41  71 S13       30.02F
CLE-LAKEFRONT  CLOUDY    53  41  63 S17       29.98F
CUY CO. ARPT   CLOUDY    54  43  66 SW13G23   30.00F
LORAIN-ELYRIA  CLOUDY    49  43  80 SW13G23   30.01F
ASHTABULA      CLOUDY    51  37  58 SW13G23   30.01S
AKRON-CANTON   LGT RAIN  48  40  73 SW10      30.03F
WOOSTER        NOT AVBL
MANSFIELD      CLOUDY    46  45  96 SW13      30.02F
YOUNGSTOWN     LGT RAIN  52  32  46 SW12      30.01F
$$

OHZ042-051>053-060>062-070>072-077>081-280200-
  SOUTHWEST OHIO

CITY           SKY/WX    TMP DP  RH WIND       PRES   REMARKS
CINC-COVINGTON LGT RAIN  48  44  86 S9        30.07F
CINC-LUNKEN    LGT RAIN  48  48 100 S7        30.09F
HAMILTON       CLOUDY    48  47  96 VRB6      30.07F
DAYTON         NOT AVBL
WRIGHT-PAT AFB NOT AVBL
DAYTON GENERAL CLOUDY    47  46  97 S9        30.06S
WILMINGTON     RAIN      47  45  93 S9        30.07F FOG
$$

OHZ036-037-039>041-045>050-054>059-063>069-073>076-082>088-280200-
  CENTRAL AND SOUTHEAST OHIO

CITY           SKY/WX    TMP DP  RH WIND       PRES   REMARKS
COLUMBUS       LGT RAIN  48  45  89 SW7       30.06F
OSU AIRPORT    LGT RAIN  48  45  89 S8        30.06F
BOLTON FIELD   NOT AVBL
RICKENBACK AFB NOT AVBL
NEWARK         LGT RAIN  48  44  86 SW5       30.06F
MARION         LGT RAIN  47  44  90 SW13      30.05S FOG
LANCASTER      LGT RAIN  48  45  89 S5        30.08S
ZANESVILLE     LGT RAIN  49  40  71 W7        30.07S
NEW PHILLY     CLOUDY    53  33  46 S3        30.06S
$$


USA.gov is the U.S. government's official web portal to all federal, state and local government web resources and services.